Regional Weather Roundup
Issued by NWS Charleston, SC

Current Version | Previous Version | Graphics & Text | Print | Product List | Glossary On
Versions: 1 2 3 4 5 6 7 8 9 10 11 12 13 14 15 16 17 18 19 20 21 22 23 24 25 26 27 28 29 30 31 32 33 34 35 36 37 38 39 40 41 42 43 44 45 46 47 48 49 50
000
ASUS42 KCHS 051012
RWRCHS

REGIONAL WEATHER ROUNDUP
NATIONAL WEATHER SERVICE CHARLESTON SC
600 AM EDT SAT SEP 05 2015

NOTE: "FAIR" INDICATES FEW OR NO CLOUDS BELOW 12,000 FEET WITH NO
SIGNIFICANT WEATHER AND/OR OBSTRUCTIONS TO VISIBILITY.

NOT ALL STATIONS ARE QUALITY CONTROLLED BY THE NATIONAL
WEATHER SERVICE. USE DATA WITH CAUTION...ESPECIALLY
DEWPOINT OBSERVATIONS.

SCZ027-030-031-034>040-042>050-051100-
...SOUTHEAST SOUTH CAROLINA...

CITY           SKY/WX    TMP DP  RH WIND       PRES   REMARKS
N CHARLESTON   PTCLDY    72  67  84 N9        30.02R
WATERFRONT PRK   N/A     75  71  87 N9        29.99R
MOUNT PLEASANT FAIR      72  70  94 N5        30.02R
JOHNS ISLAND   FAIR      73  70  88 N7        30.02R
PINOPOLIS        N/A     75  72  88 N15       29.96R
MONCKS CORNER  FAIR      75  70  83 N5        30.03S
SUMMERVILLE    NOT AVBL
BEAUFORT MCAS  MOCLDY    75  71  87 NE7       30.01S
BEAUFORT ARPT  FAIR      77  75  94 NE7       30.00S FOG
HILTON HEAD IS NOT AVBL
WALTERBORO     PTSUNNY   73  68  83 N6        30.04R
ALLENDALE      FAIR      72  70  94 CALM      30.02R

...SOUTHERN MIDLANDS AND PEE DEE...

CITY           SKY/WX    TMP DP  RH WIND       PRES   REMARKS
GEORGETOWN     NOT AVBL
KINGSTREE      NOT AVBL
ORANGEBURG     CLOUDY    71  65  81 NE6       30.04R
BARNWELL       FAIR      73  68  83 N6        30.04R
AIKEN          FAIR      68  63  83 N12       30.10R
MANNING        FAIR      70  68  94 N5        30.05R
COLUMBIA       MOCLDY    72  68  87 CALM      30.05R
SUMTER         PTCLDY    72  69  90 N8        30.03S
FLORENCE       MOCLDY    72  69  90 N7        30.06R
MYRTLE BEACH   PTCLDY    72  66  83 N7        30.05R
N MYRTLE BEACH PTCLDY    72  69  90 N7        30.03R FOG

$$

GAZ063-065-086>088-099>101-113>116-118-119-134>141-150-051100-
...SOUTHEAST GEORGIA...

CITY           SKY/WX    TMP DP  RH WIND       PRES   REMARKS
SAVANNAH ARPT  MOCLDY    72  69  90 NE3       30.01S
HUNTER AAF     CLOUDY    73  73 100 N5        29.99R
FORT STEWART   CLOUDY    73  71  92 CALM      29.99R
STATESBORO     CLEAR     70  32  24 CALM      30.01S
SYLVANIA       NOT AVBL
CLAXTON        NOT AVBL

...CSRA...CENTRAL AND FAR SOUTHEAST GEORGIA...

CITY           SKY/WX    TMP DP  RH WIND       PRES   REMARKS
THOMSON        PTCLDY    72  72 100 N3        30.10R
AUGUSTA-BUSH   MOCLDY    72  69  90 N5        30.03R
AUGUSTA-DANIEL MOCLDY    73  68  84 N7        30.05R
SWAINSBORO     FAIR      72  70  94 CALM      30.03S
VIDALIA        CLEAR     72  70  94 CALM      30.02S
EASTMAN        FAIR      73  73 100 CALM      30.05R
HAZLEHURST     FAIR      74  74 100 CALM      30.01R
ALMA           CLEAR     70  70 100 CALM      30.01R
WAYCROSS       CLEAR     74  73  98 CALM      30.00S
JESUP          FAIR      73  72  94 CALM      30.01R
BAXLEY         FAIR      73  72  94 CALM      30.01R
BRUNSWICK      CLEAR     72  70  94 CALM      30.00S
SAINT SIMONS   CLEAR     74  72  93 N6        29.99S

$$

SCZ027-028-034-036>038-045-046-048>050-GAZ119-141-051100-
...LAKE AND SUPPLEMENTAL COASTAL OBSERVATIONS...

STATION/POSITION TIME  TEMP    WIND        PRES    WAVE   SWELL
                       AIR SEA DIR/SP/G            HT/PER HT/PER/DIR
                 (UTC) (F)     (DEG/KT/KT) (MB)    (FT/S) (FT/S/D)
UPR LAKE MARION  NOT AVBL
WINYAH BAY       0845   72     340/  5     1015.0
LAKE MURRAY      0900   72      30/  2/  3 1017.3F
ACE BASIN NERRS  NOT AVBL
FORT PULASKI     0900   78 84  350/  5/  7 1016.2R
SAPELO ISLAND    0900   77     350/  4     1015.0S

$$

ANZ835-935-AMZ111-154-330-350-352-354-370-450-454-472-051100-
...C-MAN AND BUOY OBSERVATIONS...

STATION/POSITION TIME  TEMP    WIND        PRES    WAVE   SWELL
                       AIR SEA DIR/SP/G            HT/PER HT/PER/DIR
                 (UTC) (F)     (DEG/KT/KT) (MB)    (FT/S) (FT/S/D)
BUOY 41004       0950   81 84   20/ 14/ 16 1015.2R   1/ 3
BUOY 41008       0950   80 84   30/ 16/ 19 1015.4R   1
FOLLY BEACH CMAN 0900   75     340/  5/  7 1016.1S
CAPERS NEARSHORE 0908   78      20/ 12/ 16 1016.1R
FRIPP NEARSHORE  0900   81      30/ 14/ 16 1015.5R


STATION/POSITION TIME  TEMP    WIND        PRES    WAVE   SWELL
                       AIR SEA DIR/SP/G            HT/PER HT/PER/DIR
                 (UTC) (F)     (DEG/KT/KT) (MB)    (FT/S) (FT/S/D)
5E ST. MARYS GA  0921      85                N/A     1
FRYING PAN BUOY  0950   82 82   40/ 14/ 16 1016.0S   1/ 3
BUOY 41025       0950   80 84   40/ 17/ 21 1015.8R   4/ 5   2/ 10/11
CAPE LOOKOUT NC  0900   80      50/ 16/ 17 1015.5R
BUOY 41002       0950   82 84   40/  8/  8 1014.1R   1/10   2/ 20/10
BUOY 41010       0920   83 85   30/  8/ 10 1014.2R
ST AUGUSTINE FL  1000   82 84   20/  6/  7 1015.9R


$$


USA.gov is the U.S. government's official web portal to all federal, state and local government web resources and services.